Sanikiluaq Airport
CYSK : now visible

Airfield :











YOU CAN JOIN US ON...

 
LOGIN :

Register | Disclaimer

   EN    FR    IT 

 









Legend :    VFR   Marginal VFR   IFR   Intensive IFR   Very Intensive IFR
Visi :
Ceiling :
>= 8 km
>= 3000ft
5 to 8 km
1000 to 3000 ft
1500m to 5 km
500 to 1000 ft
800 to 1500m
200 to 500 ft
< 800m
< 200 ft
Symbols :   Thunderstorms  Fog  Heavy snow  Heavy precipitations  Wind > 20 kt






- Airport Elevation : 104 ft
- IATA code : YSK


CYSK - Sanikiluaq

CURRENT METAR :
  • 161700Z CCA 17019G29KT 12SM -RA BKN070 11/09 A2964 RMK AC7 PRESRR SLP039

EXPIRED METARs :
  • 161653Z 18021G29KT 12SM -DZ BKN070 11/08 A2962 RMK AC7 PRESRR SLP034
  • 161600Z 16022G28KT 15SM SCT100 BKN120 11/08 A2963 RMK AC3AS4 SLP036
  • 161500Z 17019KT 15SM FEW050 BKN160 11/08 A2967 RMK SC1AS6 SLP050

TAF N/A
CZUL FIR / North America



MET'MAP, your aeronautical weather chart ! - Copyright ORBIFLY December 2007 - Disclaimer

ORBIFLY MET'MAP TEAM :

Programming & Development : Alexandra Zaïnal
Concept & original design : Baudouin d'Aumeries
Assistance for programming : Marc-Olivier Méhu
Technical & hardware support : Manuel Goepfert

Contact : metmap@orbifly.com




SOURCES & CREDITS :

   NOAA       Earth
Advisory